Find STARLINK-38005

NORAD ID: 799501024 Int'l Des: 2026-146A Constellation: starlink operational

Current View

Loading 3D Globe...

About STARLINK-38005

STARLINK-38005 (NORAD 799501024) is a starlink constellation satellite launched Jun 12, 2026

About STARLINK-38005

Description loading...

Upcoming Passes

Passes for default location (London). Set your location on the main map for personalized predictions.

Altitude History

Loading altitude history...

Two-Line Element Set

1 99999C 2026146A 26176.29979167 .01110200 00000-0 169820-3 0 1769
2 99999 97.2860 21.9525 0011096 280.9585 11.7794 16.03700289 13
Epoch: Jun 25, 2026 • Age: 9 hours